SCP
0 0 0 0 0 0 0 0 0 0 0 0 0 0 0 0 0 0 0 0 0 0 0 0 0 0 0 0 0 0 0 0 0 0 0 0 0 0 0 0 0 0 0 0
0 0 0 0 0 0 0 0 0 0 0 0 0 0 0 0 0 0 0 0 0 0 0 0 0 0 0 0 0 0 0 0 0 0 0 0 0 0 0 0 0 0 0 0
0 0 0 0 0 0 0 0 0 0 0 0 0 0 0 0 0 0 0 0 0 0 0 0 0 0 0 0 0 0 0 0 0 0 0 0 0 0 0 0 0 0 0 0
0 0 0 0 0 0 0 0 0 0 0 0 0 0 0 0 0 0 0 0 0 0 0 0 0 0 0 0 0 0 0 0 0 0 0 0 0 0 0 0 0 0 0 0
0 0 0 0 0 0 0 0 0 0 0 0 0 0 0 0 0 0 0 0 0 0 0 0 0 0 0 0 0 0 0 0 0 0 0 0 0 0 0 0 0 0 0 0
0 0 0 0 0 0 0 0 0 0 0 0 0 0 0 0 0 0 0 0 0 0 0 0 0 0 0 0 0 0 0 0 0 0 0 0 0 0 0 0 0 0 0 0
0 0 0 0 0 0 0 0 0 0 0 0 0 0 0 0 0 0 0 0 0 0 0 0 0 0 0 0 0 0 0 0 0 0 0 0 0 0 0 0 0 0 0 0
0 0 0 0 0 0 0 0 0 0 0 0 0 0 0 0 0 0 0 0 0 0 0 0 0 0 0 0 0 0 0 0 0 0 0 0 0 0 0 0 0 0 0 0
0 0 0 0 0 0 0 0 0 0 0 0 0 0 0 0 0 0 0 0 0 0 0 0 0 0 0 0 0 0 0 0 0 0 0 0 0 0 0 0 0 0 0 0
0 0 0 0 0 0 0 0 0 0 0 0 0 0 0 0 0 0 0 0 0 0 0 0 0 0 0 0 0 0 0 0 0 0 0 0 0 0 0 0 0 0 0 0
0 0 0 0 0 0 0 0 0 0 0 0 0 0 0 0 0 0 0 0 0 0 0 0 0 0 0 0 0 0 0 0 0 0 0 0 0 0 0 0 0 0 0 0
0 0 0 0 0 0 0 0 0 0 0 0 0 0 0 0 0 0 0 0 0 0 0 0 0 0 0 0 0 0 0 0 0 0 0 0 0 0 0 0 0 0 0 0
0 0 0 0 0 0 0 0 0 0 0 0 0 0 0 0 0 0 0 0 0 0 0 0 0 0 0 0 0 0 0 0 0 0 0 0 0 0 0 0 0 0 0 0
0 0 0 0 0 0 0 0 0 0 0 0 0 0 0 0 0 0 0 0 0 0 0 0 0 0 0 0 0 0 0 0 0 0 0 0 0 0 0 0 0 0 0 0
0 0 0 0 0 0 0 0 0 0 0 0 0 0 0 0 0 0 0 0 0 0 0 0 0 0 0 0 0 0 0 0 0 0 0 0 0 0 0 0 0 0 0 0
0 0 0 0 0 0 0 0 0 0 0 0 0 0 0 0 0 0 0 0 0 0 0 0 0 0 0 0 0 0 0 0 0 0 0 0 0 0 0 0 0 0 0 0
0 0 0 0 0 0 0 0 0 0 0 0 0 0 0 0 0 0 0 0 0 0 0 0 0 0 0 0 0 0 0 0 0 0 0 0 0 0 0 0 0 0 0 0
0 0 0 0 0 0 0 0 0 0 0 0 0 0 0 0 0 0 0 0 0 0 0 0 0 0 0 0 0 0 0 0 0 0 0 0 0 0 0 0 0 0 0 0
0 0 0 0 0 0 0 0 0 0 0 0 0 0 0 0 0 0 0 0 0 0 0 0 0 0 0 0 0 0 0 0 0 0 0 0 0 0 0 0 0 0 0 0
0 0 0 0 0 0 0 0 0 0 0 0 0 0 0 0 0 0 0 0 0 0 0 0 0 0 0 0 0 0 0 0 0 0 0 0 0 0 0 0 0 0 0 0
0 0 0 0 0 0 0 0 0 0 0 0 0 0 0 0 0 0 0 0 0 0 0 0 0 0 0 0 0 0 0 0 0 0 0 0 0 0 0 0 0 0 0 0
0 0 0 0 0 0 0 0 0 0 0 0 0 0 0 0 0 0 0 0 0 0 0 0 0 0 0 0 0 0 0 0 0 0 0 0 0 0 0 0 0 0 0 0
0 0 0 0 0 0 0 0 0 0 0 0 0 0 0 0 0 0 0 0 0 0 0 0 0 0 0 0 0 0 0 0 0 0 0 0 0 0 0 0 0 0 0 0
0 0 0 0 0 0 0 0 0 0 0 0 0 0 0 0 0 0 0 0 0 0 0 0 0 0 0 0 0 0 0 0 0 0 0 0 0 0 0 0 0 0 0 0
0 0 0 0 0 0 0 0 0 0 0 0 0 0 0 0 0 0 0 0 0 0 0 0 0 0 0 0 0 0 0 0 0 0 0 0 0 0 0 0 0 0 0 0
0 0 0 0 0 0 0 0 0 0 0 0 0 0 0 0 0 0 0 0 0 0 0 0 0 0 0 0 0 0 0 0 0 0 0 0 0 0 0 0 0 0 0 0
0 0 0 -0 -0 0 0 0 0 0 0 0 0 0 0 0 0 0 0 0 0 0 0 0 0 0 0 0 0 0 0 0 0 0 0 0 0 0 0 0 0 0 0 0
Wind_Speed
6 6 5 6 7 7 8 7 8 8 8 8 4 2 2 1 1 1 1 1 1 2 2 3 3 3 2 2 1 2 2 2 2 2 2 2 2 2 2 3 3 2 3 3
6 6 6 8 9 9 9 9 10 10 11 5 2 1 1 1 2 2 2 1 2 2 2 3 3 3 3 3 2 2 2 3 2 2 2 2 2 2 3 3 3 2 3 3
4 3 5 8 9 10 8 7 7 10 8 3 3 2 3 3 3 3 3 2 3 3 3 3 3 3 3 3 2 3 3 3 2 2 2 3 3 3 3 3 3 3 3 3
3 2 7 7 2 5 6 7 8 6 5 4 4 4 4 3 2 2 3 3 3 2 3 3 2 3 3 3 2 2 3 3 2 3 3 3 3 3 3 3 3 3 3 4
2 4 8 4 2 3 4 6 6 6 5 4 3 4 4 2 1 2 2 2 2 2 3 3 3 3 3 3 2 2 3 3 3 3 3 3 4 4 3 3 3 3 3 4
3 4 6 3 2 2 2 5 4 4 4 3 1 3 4 1 2 2 2 2 2 2 2 3 2 2 2 3 3 3 3 3 3 3 4 4 4 4 3 3 4 3 4 4
6 6 8 3 2 4 3 6 1 2 3 3 4 5 3 2 2 2 3 3 2 2 2 3 2 2 2 3 3 3 3 3 4 4 4 4 4 3 3 3 3 3 4 4
5 6 9 3 4 5 5 1 1 1 2 3 4 3 3 3 3 3 3 3 2 2 3 2 2 2 3 3 3 3 3 4 4 4 4 4 3 3 3 3 3 3 3 4
8 8 3 5 5 3 1 1 2 2 2 2 3 4 4 4 4 4 4 3 2 2 3 3 2 2 3 3 2 3 4 4 4 4 4 4 3 3 3 2 3 3 3 3
5 6 5 5 4 3 3 3 3 2 3 2 4 5 4 4 4 4 4 3 2 2 3 4 3 3 3 3 2 3 4 4 4 4 4 3 3 2 3 3 3 3 3 3
7 6 4 5 5 4 3 3 3 3 3 3 4 5 4 4 4 4 3 3 3 3 4 5 4 3 3 3 3 3 4 4 4 4 3 3 3 3 4 4 4 4 3 3
8 5 5 5 4 3 4 4 4 3 4 3 3 4 4 4 4 3 3 3 3 4 4 4 4 4 3 3 3 3 4 4 3 3 3 3 3 3 5 6 8 9 7 6
6 3 3 4 3 3 3 4 3 3 4 4 4 4 4 4 4 3 4 4 4 5 4 4 4 4 3 3 3 3 4 4 3 3 3 3 3 3 3 4 6 7 7 8
5 3 4 4 4 3 3 3 2 3 3 3 4 4 4 4 4 4 4 4 4 4 4 4 4 4 4 3 3 3 3 4 4 3 3 3 3 3 3 3 3 3 4 7
4 4 5 3 3 2 2 2 2 3 3 3 3 3 4 4 5 5 4 3 3 4 4 3 4 4 3 2 3 3 3 3 2 2 2 2 2 2 3 3 3 3 3 3
3 3 4 4 4 3 3 3 4 5 4 4 4 4 4 4 4 4 3 3 3 4 3 3 4 3 2 2 2 2 2 4 3 2 2 2 2 2 2 3 3 3 3 3
4 5 4 4 4 4 4 4 4 5 4 4 4 4 3 3 3 4 4 3 3 4 4 4 3 2 1 1 2 2 2 2 4 2 2 2 2 2 2 3 3 3 3 4
6 6 5 5 4 4 4 4 4 4 4 4 3 3 3 3 4 4 4 2 2 3 3 3 2 1 1 2 2 2 2 2 2 2 2 2 2 2 3 3 3 4 3 4
3 4 3 4 4 3 3 3 3 3 3 2 3 3 4 4 4 3 2 2 2 4 3 2 3 1 2 2 2 1 2 2 2 2 2 3 3 2 2 3 3 3 3 3
2 2 2 2 2 2 3 2 2 2 2 2 2 2 3 3 3 3 2 3 3 3 2 2 2 1 2 2 2 1 2 2 2 2 2 2 2 2 2 2 3 3 2 2
2 2 2 2 2 2 2 2 2 2 1 1 2 3 3 3 2 2 2 3 3 2 1 2 1 1 1 2 2 1 1 2 2 2 2 2 2 2 2 2 2 2 2 2
2 2 3 2 2 2 1 1 1 1 1 1 2 2 2 2 2 2 3 3 2 3 2 1 1 2 3 3 1 1 1 2 2 1 1 2 2 2 2 2 2 2 2 2
2 2 2 2 2 1 1 1 1 2 2 2 2 2 3 3 2 2 3 2 1 3 2 1 2 4 4 2 1 1 1 1 2 1 2 2 2 2 2 2 2 2 2 2
1 1 1 1 1 1 1 2 1 1 2 2 2 2 2 2 2 2 2 2 3 3 2 3 4 4 3 1 1 1 1 1 1 1 2 2 2 2 2 2 2 2 2 3
1 1 1 2 2 2 2 1 1 1 1 1 2 2 2 1 2 1 1 1 3 3 2 3 4 4 2 1 1 1 1 2 2 2 2 2 2 2 2 2 2 2 2 2
2 2 2 2 2 1 1 1 1 1 1 1 1 1 1 1 1 1 1 1 2 3 2 1 2 2 1 1 1 2 2 2 2 2 2 2 2 2 2 2 3 2 2 2
1 1 1 1 1 1 1 1 1 1 1 1 1 1 1 0 0 1 1 1 1 1 1 1 1 1 1 1 1 2 2 2 2 2 2 2 2 2 2 3 2 2 2 2
Wind_Direction
266 275 266 262 256 241 230 234 241 261 269 275 283 275 279 306 322 308 331 346 327 319 322 323 322 325 325 315 305 296 283 264 254 265 261 259 254 253 256 254 246 232 234 242
269 256 258 265 256 241 239 243 250 266 271 273 280 309 296 286 285 266 267 272 288 292 300 305 308 316 315 310 306 301 286 273 269 264 256 257 256 251 252 251 240 236 237 238
261 265 286 263 233 217 223 224 227 244 258 299 298 281 276 270 262 267 272 274 274 277 284 293 295 299 293 292 294 287 279 279 276 276 269 264 264 257 253 251 240 240 240 236
272 299 248 243 187 190 217 237 230 249 277 283 277 278 271 252 239 268 281 283 285 287 295 294 293 298 290 285 280 279 280 281 282 285 279 270 263 259 260 261 249 246 247 245
232 255 269 253 205 182 211 256 224 231 261 279 311 308 280 253 228 250 270 276 274 278 286 290 288 287 282 277 277 276 278 282 282 277 271 265 260 256 259 260 257 253 253 249
228 246 253 255 176 139 133 272 237 210 242 269 315 280 268 311 324 313 307 294 291 301 299 289 276 268 263 266 267 267 274 282 285 280 267 261 260 262 260 257 255 256 260 254
229 244 262 238 155 130 179 253 252 201 230 238 233 240 268 305 305 298 293 289 292 287 279 271 266 259 257 266 267 279 286 284 280 275 269 263 260 259 258 259 256 257 259 258
202 225 249 173 145 189 224 248 261 256 249 256 262 277 289 293 292 293 289 284 286 282 280 274 251 242 257 264 274 291 289 284 280 274 270 269 261 259 256 253 251 256 259 265
203 220 238 180 204 224 192 249 271 277 296 291 282 281 285 284 282 284 283 281 284 277 283 281 254 230 249 265 281 289 285 282 281 279 270 265 259 257 254 245 245 254 256 263
256 256 248 232 237 234 231 246 260 263 274 271 268 272 279 281 280 282 283 284 287 283 279 281 270 250 248 260 268 271 275 279 278 278 276 270 259 249 247 243 243 249 252 258
252 265 282 252 240 248 255 260 267 269 261 257 260 270 272 276 277 277 283 281 270 266 267 271 269 260 251 245 246 257 265 269 270 269 267 267 262 250 248 243 243 252 251 249
234 227 223 250 243 237 242 250 249 258 270 264 251 261 269 271 270 271 274 277 274 272 273 275 269 265 257 237 231 243 260 266 264 264 263 261 267 276 264 264 270 272 273 272
239 260 255 265 266 243 241 248 250 245 249 262 264 255 257 264 266 263 265 267 264 266 270 271 268 268 266 249 234 238 250 262 264 265 264 263 264 269 284 291 283 281 277 280
235 244 264 254 255 256 249 252 255 263 259 253 258 262 258 261 264 263 262 263 265 267 266 262 263 267 267 251 233 242 249 262 267 261 264 266 268 270 272 280 292 289 283 284
231 223 232 246 247 250 244 242 255 260 262 265 259 258 256 258 261 263 263 265 267 265 263 263 266 272 269 248 236 239 245 249 252 260 265 270 273 277 277 281 284 291 296 291
235 239 234 235 241 245 245 242 245 252 255 258 260 259 257 257 261 265 263 256 257 261 266 268 269 273 271 262 261 246 244 266 271 262 264 271 270 271 276 279 283 286 286 286
210 230 231 239 241 244 246 247 245 248 251 253 256 259 260 265 272 272 272 267 256 261 263 263 271 280 276 270 265 258 248 261 273 270 258 263 264 266 269 275 278 280 280 285
221 226 221 224 232 238 245 247 249 250 250 251 252 248 245 248 259 267 274 280 287 286 275 264 266 277 270 265 258 255 248 244 244 242 250 259 268 266 267 269 273 278 282 287
227 226 225 230 230 225 231 240 247 251 253 242 238 241 242 245 254 264 266 264 274 282 284 272 293 294 272 269 272 252 256 259 263 264 261 270 277 271 268 269 273 276 281 287
223 225 223 235 232 219 228 238 239 248 249 226 222 236 249 254 253 255 249 252 254 259 266 281 281 267 265 273 284 267 264 261 263 268 270 266 267 272 272 274 277 281 286 286
220 223 220 223 232 230 219 216 216 238 250 212 212 233 250 259 251 239 246 271 277 275 282 286 280 265 262 273 280 273 265 269 266 264 265 264 268 274 279 284 289 293 292 292
215 217 221 214 213 236 235 211 208 219 237 241 239 241 252 264 263 255 243 249 272 290 292 276 271 274 281 286 271 263 265 270 269 270 272 272 272 275 281 287 290 294 295 296
213 212 215 209 206 223 232 205 207 213 227 234 233 234 239 250 245 248 276 275 279 291 296 277 281 288 291 292 278 271 277 280 278 276 277 280 282 282 281 285 286 290 292 295
210 202 201 186 151 160 215 236 223 226 231 241 239 236 237 258 274 256 258 292 290 284 280 284 288 290 294 304 284 281 284 286 286 288 288 289 288 287 287 289 289 290 288 288
189 182 175 169 187 217 223 206 193 222 230 252 259 252 237 228 251 283 293 291 293 300 303 296 296 300 306 301 275 270 272 271 278 284 282 286 288 290 290 288 286 286 288 288
188 195 203 206 207 202 187 183 213 229 224 265 288 278 258 249 258 281 292 292 291 301 310 306 296 295 290 277 275 278 278 289 296 297 292 288 288 289 288 288 288 287 289 291
179 181 185 212 214 194 186 194 214 234 228 226 269 276 260 254 255 277 289 300 302 301 301 298 289 278 280 280 278 281 281 279 278 281 286 286 288 288 287 286 290 292 293 293